Saturday, October 25, 2014
03:34 UTC
  |  Log In   |  Register Free
Airport Search:

Madison Municipal Airport
(KIMS)

Madison Municipal Airport Diagram
No Airport Diagram Available

FAA data valid effective September 18, 2014 - November 13, 2014 (unless otherwise noted).

 
 
 
 
 
 
 
 
 
 
 
 
 
 

Current Aviation Weather for Madison Municipal Airport (KIMS)

METAR data is unavailable for IMS. The nearest METAR location is at KJVY (26.9 nm SW from IMS).

The most recent METAR observation for KJVY was updated at: 0311
METAR Summary (Translated METAR)
KJVY
030145Z 34005KT 10SM CLR 00/M11 A3027 RMK LAST
(26.9 nm SW from KIMS)
KLOU
250253Z 00000KT 8SM CLR 10/09 A3006 RMK AO2 SLP180 T01000089 56001
(33.3 nm SW from KIMS)
TAF
No TAF information found within 50 nm of KLOU
  Airport Weather Conditions for KIMS

Current weather conditions are
not available for IMS


The nearest NOAA weather station
is at LOU, (33.3 nm SW from IMS)
  
 Current Weather at LOU
50° F
Fair
North winds at 0.0 mph
LOU NOAA Radar

Pressure: 30.06 in
Humidity: 93%
Wind: Calm
Dew Point: 48.0°F
Visibility: 8.00 mi


Airport Weather Forecast for KIMS

Translated METAR and TAF for KLOU
Translated METAR for KLOU (0329 UTC 25 October 2014)
found at http://aviationweather.gov/adds/metars/
 
METAR text: KLOU 250253Z 00000KT 8SM CLR 10/09 A3006 RMK AO2 SLP180 T01000089 56001
Conditions at: KLOU (LOUISVILLE/BOWMN, KY, US) observed 0253 UTC 25 October 2014
Temperature: 10.0°C (50°F)
Dewpoint: 8.9°C (48°F) [RH = 93%]
Pressure (altimeter): 30.06 inches Hg (1018.0 mb)
[Sea-level pressure: 1018.0 mb]
Winds: calm
Visibility: 8 miles (13 km)
Ceiling: at least 12,000 feet AGL
Clouds: sky clear below 12,000 feet AGL
Weather: no significant weather observed at this time
Translated TAF for KLOU

There is no translated TAF available for this airport

Find All Airport Services Find A Hotel Find A Rental Car Find A Golf Course Find A Restaurant $100 Hamburger



FBO's on the Field
FBO Company Facility Photos Services Transportation Aviation Fuel Prices: Prices include tax
Catering Weather Repair Courtesy Rental Type 100LL JetA JetA+ MOGAS 8087
 
City of Madison

This FBO has not yet been rated
FS: Phillips 66
Last Updated: Oct-14
Login to update fuel prices
SS:
Contact City of MadisonMore FBO Information
 
Add another FBO Facility Photos Catering Weather Repair Courtesy Rental Type 100LL JetA JetA+ MOGAS 8087
Services Transportation Aviation Fuel Prices: Prices include tax


model-print
model-print
model-print
model-print